CQH6978 ROAH-ZSPD

Flight info

Callsign CQH6978
Flight time 1h 48m
Altitude 31100
Route CHAMP Y579 POLAM A586 BIGIT Y591 BEDAR Y590 SADLI A593 LAMEN/K0891F311 A593 AKARA/K0893S0950 A593 DUMET DUM81A
Aircraft A20N/M-SDE2E3FGHIRWXY/LB1

Departure

Time 2026-04-12 04:27
Airport Naha International Airport (ROAH)

Arrival

Time 2026-04-12 06:15
Airport Shanghai Pudong International Airport (ZSPD)
Time Latitude Longitude Altitude Speed Heading
2026-04-12 04:16 26.20953 127.64967 35 ft 0 kts 88°
2026-04-12 04:20 26.20953 127.64958 34 ft 2 kts 88°
2026-04-12 04:20 26.20952 127.64941 33 ft 2 kts 88°
2026-04-12 04:20 26.20951 127.64925 33 ft 2 kts 97°
2026-04-12 04:21 26.20956 127.64909 32 ft 2 kts 122°
2026-04-12 04:21 26.20967 127.64896 32 ft 2 kts 146°
2026-04-12 04:21 26.20980 127.64889 31 ft 2 kts 169°
2026-04-12 04:21 26.20988 127.64888 31 ft 1 kts 182°
2026-04-12 04:22 26.20992 127.64888 31 ft 0 kts 178°
2026-04-12 04:24 26.20991 127.64888 31 ft 0 kts 178°
2026-04-12 04:25 26.20980 127.64889 31 ft 3 kts 178°
2026-04-12 04:25 26.20946 127.64887 31 ft 6 kts 198°
2026-04-12 04:25 26.20914 127.64830 29 ft 11 kts 264°
2026-04-12 04:25 26.20907 127.64736 27 ft 13 kts 265°
2026-04-12 04:26 26.20901 127.64627 25 ft 13 kts 267°
2026-04-12 04:26 26.20897 127.64561 24 ft 6 kts 266°
2026-04-12 04:26 26.20869 127.64526 23 ft 5 kts 177°
2026-04-12 04:26 26.20864 127.64527 23 ft 5 kts 177°
2026-04-12 04:27 26.20637 127.64537 24 ft 67 kts 176°
2026-04-12 04:27 26.19947 127.64569 29 ft 128 kts 178°
2026-04-12 04:27 26.18927 127.64616 263 ft 154 kts 179°
2026-04-12 04:27 26.17879 127.64658 902 ft 151 kts 180°
2026-04-12 04:28 26.16837 127.64716 1523 ft 153 kts 180°
2026-04-12 04:28 26.15758 127.64785 2052 ft 162 kts 180°
2026-04-12 04:28 26.14567 127.64855 2457 ft 180 kts 180°
2026-04-12 04:28 26.13247 127.64931 2844 ft 202 kts 180°
2026-04-12 04:29 26.11799 127.64790 3293 ft 219 kts 202°
2026-04-12 04:29 26.10511 127.63826 3853 ft 233 kts 230°
2026-04-12 04:29 26.09789 127.62164 4435 ft 251 kts 258°
2026-04-12 04:29 26.09850 127.60221 5130 ft 263 kts 284°
2026-04-12 04:30 26.10817 127.58468 5791 ft 275 kts 315°
2026-04-12 04:30 26.12523 127.57507 6470 ft 286 kts 348°
2026-04-12 04:30 26.14527 127.57520 7175 ft 292 kts
2026-04-12 04:30 26.16562 127.57703 7818 ft 297 kts
2026-04-12 04:31 26.18630 127.57864 8496 ft 300 kts
2026-04-12 04:31 26.20713 127.58016 9190 ft 302 kts
2026-04-12 04:31 26.22824 127.58167 9869 ft 305 kts
2026-04-12 04:31 26.24970 127.58320 10486 ft 310 kts
2026-04-12 04:32 26.27163 127.58471 10801 ft 327 kts
2026-04-12 04:32 26.29510 127.58630 11089 ft 343 kts
2026-04-12 04:32 26.31952 127.58794 11365 ft 360 kts
2026-04-12 04:32 26.34481 127.58966 11735 ft 371 kts
2026-04-12 04:33 26.37089 127.59148 12352 ft 375 kts 359°
2026-04-12 04:33 26.39672 127.59330 13019 ft 376 kts 359°
2026-04-12 04:33 26.42310 127.59515 13662 ft 377 kts 359°
2026-04-12 04:33 26.44931 127.59694 14224 ft 381 kts 358°
2026-04-12 04:34 26.47608 127.59878 14764 ft 385 kts 358°
2026-04-12 04:34 26.50259 127.60057 15287 ft 388 kts 358°
2026-04-12 04:34 26.52995 127.60244 15823 ft 392 kts 358°
2026-04-12 04:34 26.55715 127.60429 16361 ft 395 kts 358°
2026-04-12 04:35 26.58475 127.60619 16857 ft 398 kts 357°
2026-04-12 04:35 26.61264 127.60809 17314 ft 402 kts 357°
2026-04-12 04:35 26.64070 127.61000 17778 ft 405 kts 357°
2026-04-12 04:35 26.66876 127.61192 18227 ft 408 kts 357°
2026-04-12 04:36 26.69709 127.61386 18678 ft 410 kts 357°
2026-04-12 04:36 26.72581 127.61583 19148 ft 412 kts 356°
2026-04-12 04:36 26.75456 127.61781 19587 ft 415 kts 356°
2026-04-12 04:36 26.78324 127.61977 20030 ft 416 kts 356°
2026-04-12 04:37 26.81245 127.62178 20435 ft 419 kts 356°
2026-04-12 04:37 26.84146 127.62376 20839 ft 421 kts 356°
2026-04-12 04:37 26.87105 127.62580 21242 ft 424 kts 356°
2026-04-12 04:37 26.90057 127.62784 21615 ft 426 kts 356°
2026-04-12 04:38 26.93048 127.62989 21990 ft 429 kts 356°
2026-04-12 04:38 26.96020 127.63194 22350 ft 431 kts 356°
2026-04-12 04:38 26.99037 127.63402 22718 ft 434 kts 356°
2026-04-12 04:38 27.02064 127.63609 23072 ft 436 kts 356°
2026-04-12 04:39 27.05082 127.63818 23445 ft 438 kts 356°
2026-04-12 04:39 27.08134 127.64027 23794 ft 440 kts 356°
2026-04-12 04:39 27.11188 127.64237 24162 ft 442 kts 356°
2026-04-12 04:39 27.14266 127.64452 24512 ft 444 kts 356°
2026-04-12 04:40 27.17358 127.64668 24857 ft 446 kts 356°
2026-04-12 04:40 27.20479 127.64884 25176 ft 448 kts 356°
2026-04-12 04:40 27.23574 127.65098 25504 ft 450 kts 356°
2026-04-12 04:40 27.26723 127.65318 25823 ft 452 kts 356°
2026-04-12 04:41 27.29892 127.65537 26113 ft 454 kts 356°
2026-04-12 04:41 27.33044 127.65755 26428 ft 456 kts 356°
2026-04-12 04:41 27.36201 127.65974 26717 ft 458 kts 356°
2026-04-12 04:41 27.39420 127.66198 27006 ft 460 kts 356°
2026-04-12 04:42 27.42608 127.66420 27278 ft 461 kts 356°
2026-04-12 04:42 27.45832 127.66645 27502 ft 464 kts 356°
2026-04-12 04:42 27.49029 127.66868 27763 ft 466 kts 356°
2026-04-12 04:43 27.55517 127.67320 28287 ft 469 kts 356°
2026-04-12 04:43 27.58789 127.67550 28539 ft 470 kts 356°
2026-04-12 04:43 27.62067 127.67780 28781 ft 472 kts 356°
2026-04-12 04:43 27.65358 127.68009 28993 ft 474 kts 356°
2026-04-12 04:44 27.68652 127.68240 29286 ft 473 kts 356°
2026-04-12 04:44 27.71907 127.68469 29599 ft 472 kts 356°
2026-04-12 04:44 27.75188 127.68700 29856 ft 473 kts 356°
2026-04-12 04:44 27.78478 127.68928 30088 ft 473 kts 356°
2026-04-12 04:45 27.81794 127.69160 30317 ft 474 kts 356°
2026-04-12 04:45 27.85057 127.69388 30547 ft 474 kts 356°
2026-04-12 04:45 27.88373 127.69619 30771 ft 475 kts 356°
2026-04-12 04:45 27.91649 127.69848 30930 ft 476 kts 356°
2026-04-12 04:46 27.98266 127.70312 30942 ft 475 kts 356°
2026-04-12 04:46 28.04897 127.70779 30948 ft 477 kts 356°
2026-04-12 04:47 28.11531 127.71246 30951 ft 477 kts 356°
2026-04-12 04:47 28.18125 127.71712 30949 ft 476 kts 356°
2026-04-12 04:48 28.24742 127.72179 30949 ft 476 kts 356°
2026-04-12 04:48 28.31377 127.72647 30950 ft 476 kts 356°
2026-04-12 04:49 28.38021 127.73115 30954 ft 474 kts 356°
2026-04-12 04:49 28.44590 127.73580 30954 ft 474 kts 355°
2026-04-12 04:50 28.51175 127.74047 30953 ft 475 kts 355°
2026-04-12 04:50 28.57813 127.74515 30953 ft 475 kts 355°
2026-04-12 04:51 28.64409 127.74982 30954 ft 474 kts 355°
2026-04-12 04:51 28.70991 127.75451 30954 ft 474 kts 355°
2026-04-12 04:52 28.77581 127.75919 30953 ft 474 kts 355°
2026-04-12 04:52 28.84135 127.76387 30954 ft 474 kts 355°
2026-04-12 04:53 28.90729 127.76856 30951 ft 474 kts 355°
2026-04-12 04:54 29.00595 127.77560 30955 ft 473 kts 355°
2026-04-12 04:54 29.07211 127.78033 30955 ft 473 kts 355°
2026-04-12 04:55 29.13773 127.78502 30958 ft 474 kts 355°
2026-04-12 04:55 29.20350 127.78977 30961 ft 473 kts 354°
2026-04-12 04:56 29.26926 127.79449 30963 ft 473 kts 354°
2026-04-12 04:56 29.33502 127.79920 30968 ft 473 kts 354°
2026-04-12 04:57 29.40105 127.80393 30966 ft 473 kts 354°
2026-04-12 04:57 29.46644 127.80864 30967 ft 472 kts 354°
2026-04-12 04:58 29.53228 127.81335 30970 ft 474 kts 354°
2026-04-12 04:58 29.59776 127.81805 30966 ft 473 kts 354°
2026-04-12 04:59 29.66401 127.82282 30966 ft 472 kts 354°
2026-04-12 04:59 29.72946 127.82752 30969 ft 473 kts 354°
2026-04-12 05:00 29.79486 127.83191 30970 ft 469 kts 352°
2026-04-12 05:00 29.85959 127.82964 30973 ft 459 kts 345°
2026-04-12 05:01 29.92185 127.81833 30973 ft 450 kts 338°
2026-04-12 05:01 29.98229 127.79981 30973 ft 448 kts 335°
2026-04-12 05:02 30.04208 127.78024 30974 ft 446 kts 334°
2026-04-12 05:02 30.10138 127.76085 30979 ft 445 kts 335°
2026-04-12 05:03 30.16127 127.74141 30980 ft 445 kts 335°
2026-04-12 05:03 30.22070 127.72202 30983 ft 445 kts 334°
2026-04-12 05:04 30.28043 127.70255 30985 ft 446 kts 335°
2026-04-12 05:04 30.34016 127.68324 30985 ft 445 kts 334°
2026-04-12 05:05 30.39960 127.66389 30989 ft 444 kts 335°
2026-04-12 05:05 30.45891 127.64452 30992 ft 443 kts 334°
2026-04-12 05:06 30.51830 127.62505 30991 ft 444 kts 334°
2026-04-12 05:06 30.57781 127.60549 30992 ft 443 kts 334°
2026-04-12 05:07 30.63744 127.58588 30996 ft 444 kts 334°
2026-04-12 05:07 30.69678 127.56635 30995 ft 442 kts 334°
2026-04-12 05:08 30.75606 127.54681 30998 ft 443 kts 334°
2026-04-12 05:08 30.81499 127.52734 30870 ft 444 kts 334°
2026-04-12 05:08 30.84502 127.51740 30626 ft 443 kts 334°
2026-04-12 05:09 30.87468 127.50758 30392 ft 443 kts 334°
2026-04-12 05:09 30.90418 127.49783 30152 ft 444 kts 334°
2026-04-12 05:09 30.93405 127.48794 30008 ft 443 kts 334°
2026-04-12 05:10 30.99311 127.46836 30009 ft 443 kts 334°
2026-04-12 05:10 31.05256 127.44861 30004 ft 444 kts 334°
2026-04-12 05:11 31.11182 127.42889 30007 ft 444 kts 334°
2026-04-12 05:11 31.16962 127.40972 30002 ft 443 kts 334°
2026-04-12 05:12 31.22910 127.38989 30014 ft 444 kts 334°
2026-04-12 05:12 31.28903 127.37012 30002 ft 447 kts 334°
2026-04-12 05:13 31.34913 127.35050 30001 ft 448 kts 334°
2026-04-12 05:13 31.40895 127.33066 30004 ft 446 kts 333°
2026-04-12 05:14 31.46845 127.31081 30001 ft 447 kts 334°
2026-04-12 05:14 31.52855 127.29084 30004 ft 449 kts 334°
2026-04-12 05:15 31.58898 127.27080 30001 ft 451 kts 333°
2026-04-12 05:15 31.64940 127.25073 30002 ft 452 kts 334°
2026-04-12 05:16 31.71035 127.23046 30007 ft 452 kts 334°
2026-04-12 05:16 31.77078 127.21031 29997 ft 454 kts 334°
2026-04-12 05:17 31.83152 127.19006 30007 ft 454 kts 333°
2026-04-12 05:17 31.89260 127.16966 30005 ft 456 kts 334°
2026-04-12 05:18 31.95128 127.14510 29990 ft 434 kts 319°
2026-04-12 05:18 31.97436 127.12392 30002 ft 418 kts 306°
2026-04-12 05:18 31.99215 127.09772 29999 ft 406 kts 295°
2026-04-12 05:19 32.01369 127.03777 30000 ft 395 kts 279°
2026-04-12 05:19 32.01725 126.97379 29998 ft 390 kts 264°
2026-04-12 05:20 32.00676 126.91130 30001 ft 391 kts 261°
2026-04-12 05:20 31.99802 126.84862 30001 ft 390 kts 261°
2026-04-12 05:21 31.98931 126.78572 29996 ft 391 kts 261°
2026-04-12 05:21 31.98050 126.72253 30000 ft 391 kts 261°
2026-04-12 05:22 31.97163 126.65942 29998 ft 391 kts 262°
2026-04-12 05:22 31.96274 126.59650 29995 ft 391 kts 261°
2026-04-12 05:23 31.95378 126.53336 29991 ft 392 kts 261°
2026-04-12 05:23 31.94480 126.47018 30004 ft 392 kts 261°
2026-04-12 05:24 31.93576 126.40689 29993 ft 393 kts 262°
2026-04-12 05:24 31.92675 126.34404 30010 ft 393 kts 261°
2026-04-12 05:25 31.91762 126.28059 29995 ft 394 kts 261°
2026-04-12 05:25 31.90852 126.21729 29999 ft 394 kts 262°
2026-04-12 05:26 31.89930 126.15363 29995 ft 394 kts 261°
2026-04-12 05:26 31.89011 126.09039 29999 ft 395 kts 262°
2026-04-12 05:27 31.88084 126.02685 29994 ft 394 kts 261°
2026-04-12 05:27 31.87159 125.96378 29987 ft 394 kts 261°
2026-04-12 05:28 31.86227 125.90046 29989 ft 394 kts 261°
2026-04-12 05:28 31.85292 125.83708 29981 ft 393 kts 261°
2026-04-12 05:29 31.84352 125.77377 29985 ft 393 kts 262°
2026-04-12 05:29 31.83417 125.71086 29978 ft 393 kts 262°
2026-04-12 05:30 31.82473 125.64740 29985 ft 393 kts 262°
2026-04-12 05:30 31.81523 125.58414 29983 ft 392 kts 261°
2026-04-12 05:31 31.80581 125.52132 29987 ft 392 kts 261°
2026-04-12 05:31 31.79631 125.45831 29977 ft 391 kts 262°
2026-04-12 05:32 31.78678 125.39550 29974 ft 392 kts 261°
2026-04-12 05:32 31.77724 125.33265 29978 ft 392 kts 261°
2026-04-12 05:33 31.76764 125.26949 29980 ft 392 kts 261°
2026-04-12 05:33 31.75808 125.20687 29964 ft 391 kts 261°
2026-04-12 05:34 31.74849 125.14424 29965 ft 390 kts 261°
2026-04-12 05:34 31.73884 125.08141 29968 ft 391 kts 261°
2026-04-12 05:35 31.72922 125.01910 29962 ft 390 kts 261°
2026-04-12 05:35 31.71952 124.95644 29965 ft 391 kts 261°
2026-04-12 05:36 31.70979 124.89404 29971 ft 390 kts 261°
2026-04-12 05:36 31.70003 124.83147 29970 ft 390 kts 261°
2026-04-12 05:37 31.69025 124.76895 29952 ft 390 kts 261°
2026-04-12 05:37 31.68049 124.70676 29697 ft 383 kts 261°
2026-04-12 05:37 31.67569 124.67622 29453 ft 381 kts 261°
2026-04-12 05:38 31.67084 124.64555 29211 ft 382 kts 260°
2026-04-12 05:38 31.66599 124.61484 28974 ft 384 kts 261°
2026-04-12 05:38 31.66116 124.58411 28744 ft 384 kts 260°
2026-04-12 05:38 31.65633 124.55360 28491 ft 382 kts 260°
2026-04-12 05:39 31.65146 124.52296 28238 ft 382 kts 260°
2026-04-12 05:39 31.64662 124.49261 27997 ft 381 kts 260°
2026-04-12 05:39 31.64175 124.46187 27761 ft 381 kts 260°
2026-04-12 05:39 31.63692 124.43147 27525 ft 380 kts 259°
2026-04-12 05:40 31.63208 124.40131 27283 ft 379 kts 260°
2026-04-12 05:40 31.62721 124.37094 27034 ft 378 kts 259°
2026-04-12 05:40 31.62242 124.34102 26790 ft 377 kts 259°
2026-04-12 05:40 31.61757 124.31079 26551 ft 377 kts 259°
2026-04-12 05:41 31.61270 124.28053 26296 ft 375 kts 259°
2026-04-12 05:41 31.60792 124.25063 26050 ft 374 kts 259°
2026-04-12 05:41 31.60312 124.22073 25805 ft 373 kts 259°
2026-04-12 05:41 31.59834 124.19117 25558 ft 372 kts 259°
2026-04-12 05:42 31.59357 124.16166 25315 ft 370 kts 258°
2026-04-12 05:42 31.58873 124.13178 25065 ft 368 kts 258°
2026-04-12 05:42 31.58402 124.10274 24821 ft 367 kts 259°
2026-04-12 05:43 31.57448 124.04412 24327 ft 367 kts 258°
2026-04-12 05:43 31.56971 124.01477 24076 ft 365 kts 259°
2026-04-12 05:43 31.56498 123.98577 23827 ft 365 kts 258°
2026-04-12 05:43 31.56019 123.95656 23594 ft 364 kts 258°
2026-04-12 05:44 31.55547 123.92763 23371 ft 362 kts 258°
2026-04-12 05:44 31.55069 123.89846 23129 ft 361 kts 258°
2026-04-12 05:44 31.54594 123.86959 22890 ft 361 kts 258°
2026-04-12 05:44 31.54123 123.84092 22657 ft 359 kts 257°
2026-04-12 05:45 31.53654 123.81250 22437 ft 358 kts 258°
2026-04-12 05:45 31.53182 123.78409 22217 ft 357 kts 258°
2026-04-12 05:45 31.52706 123.75542 21988 ft 356 kts 260°
2026-04-12 05:45 31.52240 123.72707 21765 ft 357 kts 258°
2026-04-12 05:46 31.51766 123.69856 21548 ft 358 kts 259°
2026-04-12 05:46 31.51288 123.66989 21330 ft 357 kts 259°
2026-04-12 05:46 31.50817 123.64146 21105 ft 356 kts 259°
2026-04-12 05:46 31.50345 123.61303 20881 ft 356 kts 259°
2026-04-12 05:47 31.49871 123.58466 20644 ft 356 kts 259°
2026-04-12 05:47 31.49398 123.55624 20422 ft 356 kts 259°
2026-04-12 05:47 31.48920 123.52775 20189 ft 356 kts 259°
2026-04-12 05:47 31.48446 123.49943 19965 ft 355 kts 259°
2026-04-12 05:48 31.47977 123.47128 19742 ft 355 kts 259°
2026-04-12 05:48 31.47500 123.44292 19618 ft 356 kts 259°
2026-04-12 05:48 31.47021 123.41431 19614 ft 355 kts 259°
2026-04-12 05:48 31.46545 123.38603 19605 ft 357 kts 259°
2026-04-12 05:49 31.46068 123.35769 19611 ft 357 kts 259°
2026-04-12 05:49 31.45588 123.32925 19613 ft 356 kts 259°
2026-04-12 05:49 31.45111 123.30095 19613 ft 356 kts 259°
2026-04-12 05:49 31.44631 123.27248 19610 ft 357 kts 258°
2026-04-12 05:50 31.44147 123.24378 19598 ft 357 kts 259°
2026-04-12 05:50 31.43661 123.21530 19602 ft 356 kts 258°
2026-04-12 05:50 31.43183 123.18702 19600 ft 357 kts 258°
2026-04-12 05:50 31.42699 123.15861 19595 ft 357 kts 259°
2026-04-12 05:51 31.42218 123.13024 19605 ft 356 kts 258°
2026-04-12 05:51 31.41732 123.10177 19599 ft 356 kts 258°
2026-04-12 05:51 31.41244 123.07333 19476 ft 356 kts 258°
2026-04-12 05:51 31.40756 123.04496 19250 ft 354 kts 258°
2026-04-12 05:52 31.40278 123.01711 19023 ft 353 kts 258°
2026-04-12 05:52 31.39797 122.98910 18795 ft 352 kts 258°
2026-04-12 05:52 31.39308 122.96088 18564 ft 351 kts 259°
2026-04-12 05:52 31.38830 122.93317 18333 ft 351 kts 259°
2026-04-12 05:53 31.38347 122.90507 18104 ft 351 kts 259°
2026-04-12 05:53 31.37863 122.87716 17869 ft 351 kts 259°
2026-04-12 05:53 31.37377 122.84907 17657 ft 351 kts 259°
2026-04-12 05:53 31.36893 122.82111 17432 ft 351 kts 259°
2026-04-12 05:54 31.36336 122.79366 17003 ft 353 kts 254°
2026-04-12 05:54 31.35520 122.76640 16406 ft 354 kts 249°
2026-04-12 05:54 31.34474 122.74056 15815 ft 355 kts 244°
2026-04-12 05:54 31.33313 122.71538 15233 ft 355 kts 243°
2026-04-12 05:55 31.32127 122.69003 14612 ft 356 kts 242°
2026-04-12 05:55 31.30932 122.66457 14012 ft 356 kts 242°
2026-04-12 05:55 31.29742 122.63927 13425 ft 355 kts 242°
2026-04-12 05:55 31.28561 122.61422 12864 ft 353 kts 242°
2026-04-12 05:56 31.27391 122.58938 12361 ft 349 kts 241°
2026-04-12 05:56 31.26233 122.56480 11862 ft 346 kts 242°
2026-04-12 05:56 31.25072 122.54014 11379 ft 342 kts 241°
2026-04-12 05:56 31.23941 122.51617 10854 ft 339 kts 241°
2026-04-12 05:57 31.22802 122.49207 10397 ft 334 kts 241°
2026-04-12 05:57 31.21706 122.46887 10273 ft 319 kts 242°
2026-04-12 05:57 31.20672 122.44699 10184 ft 303 kts 241°
2026-04-12 05:57 31.19675 122.42594 10091 ft 288 kts 242°
2026-04-12 05:58 31.18727 122.40591 10029 ft 273 kts 241°
2026-04-12 05:58 31.17829 122.38693 9742 ft 268 kts 242°
2026-04-12 05:58 31.16929 122.36791 9437 ft 264 kts 242°
2026-04-12 05:58 31.16055 122.34944 9067 ft 256 kts 241°
2026-04-12 05:59 31.15223 122.33183 8738 ft 244 kts 241°
2026-04-12 05:59 31.14395 122.31427 8429 ft 244 kts 241°
2026-04-12 05:59 31.13728 122.29609 8243 ft 245 kts 261°
2026-04-12 05:59 31.13906 122.27646 8129 ft 249 kts 285°
2026-04-12 06:00 31.14761 122.25899 8069 ft 252 kts 303°
2026-04-12 06:00 31.15881 122.24312 7978 ft 260 kts 304°
2026-04-12 06:00 31.17074 122.22639 7857 ft 273 kts 305°
2026-04-12 06:00 31.18308 122.20927 7740 ft 275 kts 305°
2026-04-12 06:01 31.19553 122.19199 7618 ft 276 kts 305°
2026-04-12 06:01 31.20783 122.17493 7493 ft 276 kts 306°
2026-04-12 06:01 31.22013 122.15788 7364 ft 275 kts 305°
2026-04-12 06:01 31.23253 122.14061 7242 ft 276 kts 305°
2026-04-12 06:02 31.24480 122.12348 7121 ft 275 kts 306°
2026-04-12 06:02 31.25702 122.10645 6994 ft 275 kts 306°
2026-04-12 06:02 31.26936 122.08926 6792 ft 276 kts 306°
2026-04-12 06:02 31.28167 122.07212 6344 ft 278 kts 305°
2026-04-12 06:03 31.29408 122.05477 5888 ft 279 kts 306°
2026-04-12 06:03 31.30662 122.03723 5439 ft 280 kts 306°
2026-04-12 06:03 31.31901 122.01985 4993 ft 281 kts 305°
2026-04-12 06:03 31.33145 122.00250 4605 ft 271 kts 306°
2026-04-12 06:04 31.34361 121.98548 4312 ft 271 kts 306°
2026-04-12 06:04 31.35560 121.96870 4015 ft 272 kts 306°
2026-04-12 06:04 31.36778 121.95163 3715 ft 273 kts 306°
2026-04-12 06:04 31.38008 121.93439 3407 ft 274 kts 307°
2026-04-12 06:05 31.39231 121.91721 3102 ft 273 kts 307°
2026-04-12 06:05 31.40431 121.90034 2798 ft 271 kts 308°
2026-04-12 06:05 31.41618 121.88358 2499 ft 260 kts 309°
2026-04-12 06:05 31.42783 121.86723 2248 ft 265 kts 310°
2026-04-12 06:06 31.43956 121.85073 2036 ft 266 kts 311°
2026-04-12 06:06 31.44968 121.83298 1984 ft 258 kts 288°
2026-04-12 06:06 31.45063 121.81308 1987 ft 237 kts 253°
2026-04-12 06:06 31.44628 121.79449 1990 ft 232 kts 250°
2026-04-12 06:07 31.44197 121.77666 1974 ft 226 kts 251°
2026-04-12 06:07 31.43780 121.75909 1978 ft 225 kts 250°
2026-04-12 06:07 31.43351 121.74144 1980 ft 222 kts 245°
2026-04-12 06:07 31.42559 121.72679 1943 ft 205 kts 210°
2026-04-12 06:08 31.41377 121.72142 2008 ft 169 kts 173°
2026-04-12 06:08 31.40301 121.72347 1963 ft 144 kts 155°
2026-04-12 06:08 31.39384 121.72701 1966 ft 137 kts 152°
2026-04-12 06:08 31.38471 121.73081 2013 ft 139 kts 153°
2026-04-12 06:09 31.37558 121.73453 1981 ft 137 kts 153°
2026-04-12 06:09 31.36650 121.73820 1979 ft 138 kts 155°
2026-04-12 06:09 31.35736 121.74180 1983 ft 138 kts 154°
2026-04-12 06:09 31.34828 121.74529 1968 ft 138 kts 154°
2026-04-12 06:10 31.33909 121.74882 1978 ft 138 kts 156°
2026-04-12 06:10 31.33001 121.75224 1972 ft 137 kts 154°
2026-04-12 06:10 31.32081 121.75571 1977 ft 137 kts 157°
2026-04-12 06:10 31.31172 121.75909 1980 ft 138 kts 156°
2026-04-12 06:11 31.30254 121.76252 1984 ft 138 kts 154°
2026-04-12 06:11 31.29336 121.76596 1996 ft 137 kts 154°
2026-04-12 06:11 31.28420 121.76942 1984 ft 137 kts 154°
2026-04-12 06:11 31.27500 121.77286 1990 ft 138 kts 155°
2026-04-12 06:12 31.26592 121.77625 1994 ft 137 kts 155°
2026-04-12 06:12 31.25671 121.77970 1973 ft 138 kts 155°
2026-04-12 06:12 31.24749 121.78316 1815 ft 138 kts 153°
2026-04-12 06:12 31.23849 121.78655 1639 ft 137 kts 154°
2026-04-12 06:13 31.22935 121.78999 1455 ft 137 kts 154°
2026-04-12 06:13 31.22022 121.79344 1265 ft 136 kts 155°
2026-04-12 06:13 31.21121 121.79684 1081 ft 136 kts 155°
2026-04-12 06:13 31.20227 121.80021 902 ft 135 kts 155°
2026-04-12 06:14 31.19328 121.80360 721 ft 135 kts 156°
2026-04-12 06:14 31.18425 121.80701 541 ft 135 kts 156°
2026-04-12 06:14 31.17536 121.81036 357 ft 135 kts 156°
2026-04-12 06:14 31.16650 121.81368 176 ft 133 kts 158°
2026-04-12 06:15 31.15768 121.81701 32 ft 130 kts 157°
2026-04-12 06:15 31.15066 121.81974 19 ft 68 kts 162°
2026-04-12 06:15 31.14686 121.82117 19 ft 53 kts 161°
2026-04-12 06:15 31.14440 121.82183 19 ft 28 kts 179°
2026-04-12 06:16 31.14253 121.82155 22 ft 25 kts 192°
2026-04-12 06:16 31.14107 121.82132 22 ft 15 kts 174°
2026-04-12 06:16 31.14004 121.82167 22 ft 15 kts 160°
2026-04-12 06:16 31.13906 121.82204 22 ft 15 kts 162°
2026-04-12 06:17 31.13805 121.82241 22 ft 15 kts 162°
2026-04-12 06:17 31.13706 121.82278 22 ft 7 kts 164°
2026-04-12 06:17 31.13670 121.82264 22 ft 5 kts 242°
2026-04-12 06:17 31.13657 121.82213 22 ft 7 kts 252°
2026-04-12 06:18 31.13649 121.82187 22 ft 0 kts 252°
2026-04-12 06:19 31.13646 121.82175 22 ft 2 kts 252°
2026-04-12 06:19 31.13637 121.82143 22 ft 5 kts 252°
2026-04-12 06:19 31.13623 121.82092 22 ft 7 kts 252°
2026-04-12 06:19 31.13604 121.82024 22 ft 9 kts 252°
2026-04-12 06:20 31.13581 121.81943 22 ft 11 kts 252°
2026-04-12 06:20 31.13556 121.81850 22 ft 12 kts 252°
2026-04-12 06:20 31.13527 121.81746 20 ft 14 kts 252°
2026-04-12 06:20 31.13495 121.81629 18 ft 10 kts 252°
2026-04-12 06:21 31.13486 121.81566 18 ft 8 kts 288°
2026-04-12 06:21 31.13538 121.81528 18 ft 9 kts 342°
2026-04-12 06:21 31.13605 121.81503 18 ft 10 kts 342°
2026-04-12 06:21 31.13675 121.81476 19 ft 6 kts 342°
2026-04-12 06:22 31.13684 121.81432 19 ft 7 kts 245°
2026-04-12 06:22 31.13663 121.81373 18 ft 6 kts 252°
2026-04-12 06:22 31.13661 121.81363 18 ft 0 kts 251°